TimeEST,TemperatureF,Dew PointF,Humidity,Sea Level PressureIn,VisibilityMPH,Wind Direction,Wind SpeedMPH,Gust SpeedMPH,PrecipitationIn,Events,Conditions,WindDirDegrees,DateUTC
12:22 AM,26.6,21.2,80,30.10,2.5,West,12.7,17.3,0.00,Snow,Light Snow,280,2012-12-30 05:22:00
12:32 AM,26.6,21.2,80,30.10,1.8,West,10.4,19.6,0.00,Snow,Light Snow,280,2012-12-30 05:32:00
12:40 AM,26.6,21.2,80,30.11,2.5,West,10.4,18.4,0.00,Snow,Light Snow,280,2012-12-30 05:40:00
12:53 AM,26.1,21.9,84,30.14,2.5,West,11.5,20.7,0.00,Snow,Light Snow,280,2012-12-30 05:53:00
1:23 AM,26.6,21.2,80,30.13,3.0,West,12.7,19.6,0.00,Snow,Light Snow,280,2012-12-30 06:23:00
1:48 AM,26.6,21.2,80,30.14,7.0,WNW,12.7,19.6,0.00,,Overcast,290,2012-12-30 06:48:00
1:53 AM,26.1,21.0,81,30.17,8.0,WNW,12.7,18.4,0.00,,Overcast,290,2012-12-30 06:53:00
2:50 AM,26.6,21.2,80,30.18,8.0,West,11.5,-,N/A,,Overcast,280,2012-12-30 07:50:00
2:53 AM,26.1,21.0,81,30.22,8.0,WNW,10.4,-,N/A,,Overcast,290,2012-12-30 07:53:00
3:53 AM,26.1,21.0,81,30.24,7.0,West,11.5,18.4,N/A,,Overcast,280,2012-12-30 08:53:00
4:53 AM,26.1,21.0,81,30.28,8.0,WNW,9.2,-,N/A,,Overcast,290,2012-12-30 09:53:00
5:39 AM,26.6,19.4,74,30.28,8.0,WNW,9.2,-,N/A,,Overcast,290,2012-12-30 10:39:00
5:53 AM,26.1,19.9,78,30.32,8.0,WNW,12.7,17.3,N/A,,Overcast,300,2012-12-30 10:53:00
6:53 AM,25.0,19.9,81,30.35,8.0,West,10.4,-,N/A,,Overcast,280,2012-12-30 11:53:00
7:53 AM,25.0,19.9,81,30.38,7.0,West,10.4,-,N/A,,Overcast,270,2012-12-30 12:53:00
8:53 AM,24.1,19.0,81,30.40,7.0,West,11.5,-,N/A,,Overcast,260,2012-12-30 13:53:00
9:53 AM,24.1,19.0,81,30.42,6.0,WSW,8.1,-,N/A,,Haze,250,2012-12-30 14:53:00
10:53 AM,25.0,19.0,78,30.44,8.0,West,10.4,-,N/A,,Overcast,270,2012-12-30 15:53:00
11:41 AM,24.8,17.6,74,30.40,10.0,West,13.8,-,N/A,,Overcast,270,2012-12-30 16:41:00
11:53 AM,24.1,17.1,75,30.44,9.0,West,13.8,-,N/A,,Overcast,260,2012-12-30 16:53:00
12:53 PM,25.0,18.0,75,30.43,10.0,West,11.5,-,N/A,,Overcast,260,2012-12-30 17:53:00
1:53 PM,25.0,17.1,72,30.42,10.0,West,12.7,-,N/A,,Overcast,280,2012-12-30 18:53:00
2:45 PM,26.6,17.6,69,30.37,10.0,West,9.2,-,N/A,,Partly Cloudy,260,2012-12-30 19:45:00
2:53 PM,26.1,18.0,71,30.41,10.0,West,6.9,-,N/A,,Partly Cloudy,270,2012-12-30 19:53:00
3:53 PM,26.1,18.0,71,30.42,10.0,West,8.1,-,N/A,,Clear,260,2012-12-30 20:53:00
4:53 PM,24.1,16.0,71,30.41,10.0,West,3.5,-,N/A,,Clear,260,2012-12-30 21:53:00
5:53 PM,17.1,12.9,84,30.41,9.0,Calm,Calm,-,N/A,,Clear,0,2012-12-30 22:53:00
6:53 PM,15.1,10.0,80,30.43,7.0,Calm,Calm,-,N/A,,Clear,0,2012-12-30 23:53:00
7:53 PM,19.0,15.1,85,30.44,9.0,SW,3.5,-,N/A,,Clear,220,2012-12-31 00:53:00
8:53 PM,19.0,15.1,85,30.43,9.0,SSW,5.8,-,N/A,,Clear,200,2012-12-31 01:53:00
9:53 PM,21.9,17.1,82,30.38,10.0,SSW,8.1,-,N/A,,Clear,210,2012-12-31 02:53:00
10:53 PM,19.0,15.1,85,30.38,9.0,Calm,Calm,-,N/A,,Clear,0,2012-12-31 03:53:00
11:53 PM,17.1,14.0,88,30.38,8.0,SSW,3.5,-,N/A,,Clear,210,2012-12-31 04:53:00